Maun, Botswana

12:38 AM CAT on July 27, 2017 (GMT +0200)
Maun

Weather History for FBMN - May, 2013

Change the Weather History Date:

Monday, May 6, 2013

  Actual Average Record
Temperature  
Mean Temperature 66 °F -  
Max Temperature 81 °F 80 °F 93 °F (1998)
Min Temperature 50 °F 52 °F 50 °F (2001)
Growing Degree Days 16 (Base 50)    
Moisture  
Dew Point 43 °F    
Average Humidity 40    
Maximum Humidity 83    
Minimum Humidity 26    
Precipitation  
Precipitation 0.00 in - - ()
Sea Level Pressure  
Sea Level Pressure 30.27 in    
Wind  
Wind Speed 9 mph ()    
Max Wind Speed 22 mph    
Max Gust Speed -    
Visibility 6.0 miles    
Events      
Averages and records for this station are not official NWS values.
T = Trace of Precipitation, MM = Missing Value Source: Averaged Metar Reports

Daily Weather History Graph

Daily Weather History Graph

Search for Another Location

Airport or City:

Trip Planner

Search our weather history database for the weather conditions in past years. The results will help you decide how hot, cold, wet, or windy it might be!

Date:

Astronomy

May. 06, 2013 Rise Set
Actual Time 6:44 AM CAT 6:01 PM CAT
Civil Twilight 6:21 AM CAT 6:24 PM CAT
Nautical Twilight 5:54 AM CAT 6:50 PM CAT
Astronomical Twilight 5:28 AM CAT 7:17 PM CAT
Moon 3:30 AM CAT (5/6) 3:38 PM CAT (5/6)
Length of Visible Light 12h 03m
Length of Day
11h 17m
Waning Crescent, 13% of the Moon is Illuminated
May 6
Waning Crescent
May 10
New
May 18
First Quarter
May 25
Full
May 31
Last Quarter

Hourly Weather History & Observations

Time (CAT) Temp. Dew Point Humidity Pressure Visibility Wind Dir Wind Speed Gust Speed Precip Events Conditions
2:00 AM 60 °F 38 °F 33%  in 6 mi South 9.2 mph - -   Partly Cloudy
2:00 AM 59.0 °F 39.2 °F 48% 30.24 in - South 9.2 mph - N/A   Clear
5:00 AM 53.6 °F 41.0 °F 62% 30.27 in - SE 6.9 mph - N/A   Clear
6:00 AM 51.8 °F 32.0 °F 47% 30.27 in - ESE 3.5 mph - N/A   Clear
7:00 AM 50.0 °F 30.2 °F 47% 30.30 in - SSE 10.4 mph - N/A   Clear
8:00 AM 55.4 °F 37.4 °F 51% 30.33 in - ESE 9.2 mph - N/A   Clear
9:00 AM 64.4 °F 59.0 °F 83% 30.33 in - East 17.3 mph - N/A   Clear
10:00 AM 71.6 °F 48.2 °F 43% 30.36 in - East 16.1 mph - N/A   Clear
11:00 AM 77.0 °F 44.6 °F 32% 30.33 in - ESE 21.9 mph - N/A   Clear
12:00 PM 78.8 °F 44.6 °F 30% 30.30 in - East 16.1 mph - N/A   Clear
1:00 PM 80.6 °F 44.6 °F 28% 30.27 in - East 10.4 mph - N/A   Clear
2:00 PM 80.6 °F 42.8 °F 26% 30.24 in - East 11.5 mph - N/A   Clear
3:00 PM 80.6 °F 44.6 °F 28% 30.21 in - East 13.8 mph - N/A   Clear
4:00 PM 82.4 °F 44.6 °F 26% 30.21 in - ESE 12.7 mph - N/A   Clear
5:00 PM 80.6 °F 44.6 °F 28% 30.21 in - ESE 11.5 mph - N/A   Clear
6:00 PM 77.0 °F 46.4 °F 34% 30.21 in - SE 6.9 mph - N/A   Clear
7:00 PM 73.4 °F 44.6 °F 36% 30.24 in - SE 8.1 mph - N/A   Clear
8:00 PM 70 °F 44 °F 28%  in 6 mi SE 9.2 mph - -   Partly Cloudy
8:00 PM 69.8 °F 44.6 °F 40% 30.24 in - SE 9.2 mph - N/A   Clear
9:00 PM 66.2 °F 44.6 °F 46% 30.27 in - SE 6.9 mph - N/A   Clear
10:00 PM 64.4 °F 42.8 °F 45% 30.27 in - SE 8.1 mph - N/A   Clear
11:00 PM 64.4 °F 42.8 °F 45% 30.27 in - SE 8.1 mph - N/A   Clear